Location: Ferchesar
(52.6477°N, 12.4298°E)
Time: 10:38:51
(UTC+01:00)

Envisat - Pass Details

Date: 07 October 2022
Orbit: 763 x 765 km, 98.2° (Epoch: 01 December)

Event Time Altitude Azimuth Distance (km) Brightness Sun altitude
Rises 05:06:41 0° 18° (NNE) 3,247 6.8 -21.0°
Reaches altitude 10° 05:09:07 10° 25° (NNE) 2,316 6.1 -20.6°
Maximum altitude 05:13:59 44° 98° (E) 1,057 4.1 -19.9°
Drops below altitude 10° 05:18:49 10° 170° (S) 2,298 5.4 -19.2°
Sets 05:21:13 0° 177° (S) 3,220 6.1 -18.9°
